Time,TemperatureF,DewpointF,PressureIn,WindDirection,WindDirectionDegrees,WindSpeedMPH,WindSpeedGustMPH,Humidity,HourlyPrecipIn,Conditions,Clouds,dailyrainin,SolarRadiationWatts/m^2,SoftwareType,DateUTC
2013-02-16 00:01:00,68.0,61.0,-100.00,NE,43,5.0,17.0,79,0.00,,,0.00,0.000000,,2013-02-16 10:01:00,
2013-02-16 00:11:00,68.0,61.0,-100.00,NE,43,5.0,17.0,79,0.00,,,0.00,0.000000,,2013-02-16 10:11:00,
2013-02-16 00:21:00,68.0,61.0,-100.00,NE,43,5.0,17.0,79,0.00,,,0.00,0.000000,,2013-02-16 10:21:00,
2013-02-16 00:31:00,68.0,61.0,-100.00,NE,43,5.0,17.0,79,0.00,,,0.00,0.000000,,2013-02-16 10:31:00,
2013-02-16 01:02:00,67.0,61.0,-100.00,NNE,25,5.0,11.0,82,0.00,,,0.00,0.000000,,2013-02-16 11:02:00,
2013-02-16 01:11:00,67.0,61.0,-100.00,NNE,25,5.0,11.0,82,0.00,,,0.00,0.000000,,2013-02-16 11:11:00,
2013-02-16 01:22:00,67.0,61.0,-100.00,NNE,25,5.0,11.0,82,0.00,,,0.00,0.000000,,2013-02-16 11:22:00,
2013-02-16 01:31:00,67.0,61.0,-100.00,NNE,25,5.0,11.0,82,0.00,,,0.00,0.000000,,2013-02-16 11:31:00,
2013-02-16 02:01:00,66.0,63.0,-100.00,NE,45,6.0,11.0,91,0.01,,,0.01,0.000000,,2013-02-16 12:01:00,
2013-02-16 02:12:00,66.0,63.0,-100.00,NE,45,6.0,11.0,91,0.01,,,0.01,0.000000,,2013-02-16 12:12:00,
2013-02-16 02:22:00,66.0,63.0,-100.00,NE,45,6.0,11.0,91,0.01,,,0.01,0.000000,,2013-02-16 12:22:00,
2013-02-16 02:32:00,66.0,63.0,-100.00,NE,45,6.0,11.0,91,0.01,,,0.01,0.000000,,2013-02-16 12:32:00,
2013-02-16 03:01:00,66.0,62.0,-100.00,NE,56,4.0,11.0,87,0.00,,,0.01,0.000000,,2013-02-16 13:01:00,
2013-02-16 03:11:00,66.0,62.0,-100.00,NE,56,4.0,11.0,87,0.00,,,0.01,0.000000,,2013-02-16 13:11:00,
2013-02-16 03:21:00,66.0,62.0,-100.00,NE,56,4.0,11.0,87,0.00,,,0.01,0.000000,,2013-02-16 13:21:00,
2013-02-16 03:31:00,66.0,62.0,-100.00,NE,56,4.0,11.0,87,0.00,,,0.01,0.000000,,2013-02-16 13:31:00,
2013-02-16 04:01:00,67.0,62.0,-100.00,ENE,68,9.0,15.0,84,0.00,,,0.01,0.000000,,2013-02-16 14:01:00,
2013-02-16 04:11:00,67.0,62.0,-100.00,ENE,68,9.0,15.0,84,0.00,,,0.01,0.000000,,2013-02-16 14:11:00,
2013-02-16 04:21:00,67.0,62.0,-100.00,ENE,68,9.0,15.0,84,0.00,,,0.01,0.000000,,2013-02-16 14:21:00,
2013-02-16 04:32:00,67.0,62.0,-100.00,ENE,68,9.0,15.0,84,0.00,,,0.01,0.000000,,2013-02-16 14:32:00,
2013-02-16 05:01:00,67.0,60.0,-100.00,ENE,60,3.0,10.0,78,0.00,,,0.01,0.000000,,2013-02-16 15:01:00,
2013-02-16 05:11:00,67.0,60.0,-100.00,ENE,60,3.0,10.0,78,0.00,,,0.01,0.000000,,2013-02-16 15:11:00,
2013-02-16 05:21:00,67.0,60.0,-100.00,ENE,60,3.0,10.0,78,0.00,,,0.01,0.000000,,2013-02-16 15:21:00,
2013-02-16 05:31:00,67.0,60.0,-100.00,ENE,60,3.0,10.0,78,0.00,,,0.01,0.000000,,2013-02-16 15:31:00,
2013-02-16 06:01:00,66.0,57.0,-100.00,ENE,75,5.0,14.0,74,0.00,,,0.01,0.000000,,2013-02-16 16:01:00,
2013-02-16 06:11:00,66.0,57.0,-100.00,ENE,75,5.0,14.0,74,0.00,,,0.01,0.000000,,2013-02-16 16:11:00,
2013-02-16 06:21:00,66.0,57.0,-100.00,ENE,75,5.0,14.0,74,0.00,,,0.01,0.000000,,2013-02-16 16:21:00,
2013-02-16 06:32:00,66.0,57.0,-100.00,ENE,75,5.0,14.0,74,0.00,,,0.01,0.000000,,2013-02-16 16:32:00,
2013-02-16 06:52:00,66.0,61.0,-100.00,NE,35,4.0,12.0,84,0.02,,,0.03,0.000000,,2013-02-16 16:52:00,
2013-02-16 07:01:00,66.0,61.0,-100.00,NE,35,4.0,12.0,84,0.02,,,0.03,0.000000,,2013-02-16 17:01:00,
2013-02-16 07:11:00,66.0,61.0,-100.00,NE,35,4.0,12.0,84,0.02,,,0.03,0.000000,,2013-02-16 17:11:00,
2013-02-16 07:21:00,66.0,61.0,-100.00,NE,35,4.0,12.0,84,0.02,,,0.03,0.000000,,2013-02-16 17:21:00,
2013-02-16 07:31:00,66.0,61.0,-100.00,NE,35,4.0,12.0,84,0.02,,,0.03,0.000000,,2013-02-16 17:31:00,
2013-02-16 08:02:00,66.0,62.0,-100.00,NE,51,7.0,11.0,86,0.02,,,0.05,10.000000,,2013-02-16 18:02:00,
2013-02-16 08:11:00,66.0,62.0,-100.00,NE,51,7.0,11.0,86,0.02,,,0.05,10.000000,,2013-02-16 18:11:00,
2013-02-16 08:21:00,66.0,62.0,-100.00,NE,51,7.0,11.0,86,0.02,,,0.05,10.000000,,2013-02-16 18:21:00,
2013-02-16 08:32:00,66.0,62.0,-100.00,NE,51,7.0,11.0,86,0.02,,,0.05,10.000000,,2013-02-16 18:32:00,
2013-02-16 09:02:00,67.0,63.0,-100.00,ENE,73,7.0,14.0,86,0.00,,,0.05,73.000000,,2013-02-16 19:02:00,
2013-02-16 09:11:00,67.0,63.0,-100.00,ENE,73,7.0,14.0,86,0.00,,,0.05,73.000000,,2013-02-16 19:11:00,
2013-02-16 09:21:00,67.0,63.0,-100.00,ENE,73,7.0,14.0,86,0.00,,,0.05,73.000000,,2013-02-16 19:21:00,
2013-02-16 09:31:00,67.0,63.0,-100.00,ENE,73,7.0,14.0,86,0.00,,,0.05,73.000000,,2013-02-16 19:31:00,
2013-02-16 10:01:00,74.0,64.0,-100.00,East,80,14.0,21.0,71,0.00,,,0.05,409.000000,,2013-02-16 20:01:00,
2013-02-16 10:11:00,74.0,64.0,-100.00,East,80,14.0,21.0,71,0.00,,,0.05,409.000000,,2013-02-16 20:11:00,
2013-02-16 10:21:00,74.0,64.0,-100.00,East,80,14.0,21.0,71,0.00,,,0.05,409.000000,,2013-02-16 20:21:00,
2013-02-16 10:32:00,74.0,64.0,-100.00,East,80,14.0,21.0,71,0.00,,,0.05,409.000000,,2013-02-16 20:32:00,
2013-02-16 11:02:00,75.0,62.0,-100.00,East,83,14.0,28.0,63,0.00,,,0.05,690.000000,,2013-02-16 21:02:00,
2013-02-16 11:11:00,75.0,62.0,-100.00,East,83,14.0,28.0,63,0.00,,,0.05,690.000000,,2013-02-16 21:11:00,
2013-02-16 11:21:00,75.0,62.0,-100.00,East,83,14.0,28.0,63,0.00,,,0.05,690.000000,,2013-02-16 21:21:00,
2013-02-16 11:31:00,75.0,62.0,-100.00,East,83,14.0,28.0,63,0.00,,,0.05,690.000000,,2013-02-16 21:31:00,
2013-02-16 12:01:00,78.0,62.0,-100.00,ENE,78,12.0,29.0,57,0.00,,,0.05,835.000000,,2013-02-16 22:01:00,
2013-02-16 12:11:00,78.0,62.0,-100.00,ENE,78,12.0,29.0,57,0.00,,,0.05,835.000000,,2013-02-16 22:11:00,
2013-02-16 12:21:00,78.0,62.0,-100.00,ENE,78,12.0,29.0,57,0.00,,,0.05,835.000000,,2013-02-16 22:21:00,
2013-02-16 12:31:00,78.0,62.0,-100.00,ENE,78,12.0,29.0,57,0.00,,,0.05,835.000000,,2013-02-16 22:31:00,
2013-02-16 13:02:00,80.0,59.0,-100.00,East,82,14.0,27.0,49,0.00,,,0.05,1054.000000,,2013-02-16 23:02:00,
2013-02-16 13:11:00,80.0,59.0,-100.00,East,82,14.0,27.0,49,0.00,,,0.05,1054.000000,,2013-02-16 23:11:00,
2013-02-16 13:21:00,80.0,59.0,-100.00,East,82,14.0,27.0,49,0.00,,,0.05,1054.000000,,2013-02-16 23:21:00,
2013-02-16 13:31:00,80.0,59.0,-100.00,East,82,14.0,27.0,49,0.00,,,0.05,1054.000000,,2013-02-16 23:31:00,
2013-02-16 14:02:00,82.0,56.0,-100.00,ENE,64,13.0,26.0,41,0.00,,,0.05,1092.000000,,2013-02-17 00:02:00,
2013-02-16 14:12:00,82.0,56.0,-100.00,ENE,64,13.0,26.0,41,0.00,,,0.05,1092.000000,,2013-02-17 00:12:00,
2013-02-16 14:21:00,82.0,56.0,-100.00,ENE,64,13.0,26.0,41,0.00,,,0.05,1092.000000,,2013-02-17 00:21:00,
2013-02-16 14:31:00,82.0,56.0,-100.00,ENE,64,13.0,26.0,41,0.00,,,0.05,1092.000000,,2013-02-17 00:31:00,
2013-02-16 15:01:00,82.0,55.0,-100.00,ENE,66,12.0,25.0,39,0.00,,,0.05,1038.000000,,2013-02-17 01:01:00,
2013-02-16 15:11:00,82.0,55.0,-100.00,ENE,66,12.0,25.0,39,0.00,,,0.05,1038.000000,,2013-02-17 01:11:00,
2013-02-16 15:21:00,82.0,55.0,-100.00,ENE,66,12.0,25.0,39,0.00,,,0.05,1038.000000,,2013-02-17 01:21:00,
2013-02-16 15:31:00,82.0,55.0,-100.00,ENE,66,12.0,25.0,39,0.00,,,0.05,1038.000000,,2013-02-17 01:31:00,
2013-02-16 16:01:00,78.0,57.0,-100.00,East,80,14.0,31.0,48,0.00,,,0.05,793.000000,,2013-02-17 02:01:00,
2013-02-16 16:11:00,78.0,57.0,-100.00,East,80,14.0,31.0,48,0.00,,,0.05,793.000000,,2013-02-17 02:11:00,
2013-02-16 16:21:00,78.0,57.0,-100.00,East,80,14.0,31.0,48,0.00,,,0.05,793.000000,,2013-02-17 02:21:00,
2013-02-16 16:31:00,78.0,57.0,-100.00,East,80,14.0,31.0,48,0.00,,,0.05,793.000000,,2013-02-17 02:31:00,
2013-02-16 17:01:00,77.0,52.0,-100.00,East,85,10.0,17.0,42,0.00,,,0.05,541.000000,,2013-02-17 03:01:00,
2013-02-16 17:11:00,77.0,52.0,-100.00,East,85,10.0,17.0,42,0.00,,,0.05,541.000000,,2013-02-17 03:11:00,
2013-02-16 17:21:00,77.0,52.0,-100.00,East,85,10.0,17.0,42,0.00,,,0.05,541.000000,,2013-02-17 03:21:00,
2013-02-16 17:31:00,77.0,52.0,-100.00,East,85,10.0,17.0,42,0.00,,,0.05,541.000000,,2013-02-17 03:31:00,
2013-02-16 18:01:00,73.0,50.0,-100.00,East,90,9.0,19.0,44,0.00,,,0.05,202.000000,,2013-02-17 04:01:00,
2013-02-16 18:11:00,73.0,50.0,-100.00,East,90,9.0,19.0,44,0.00,,,0.05,202.000000,,2013-02-17 04:11:00,
2013-02-16 18:21:00,73.0,50.0,-100.00,East,90,9.0,19.0,44,0.00,,,0.05,202.000000,,2013-02-17 04:21:00,
2013-02-16 18:31:00,73.0,50.0,-100.00,East,90,9.0,19.0,44,0.00,,,0.05,202.000000,,2013-02-17 04:31:00,
2013-02-16 19:01:00,71.0,47.0,-100.00,East,89,7.0,15.0,43,0.00,,,0.05,47.000000,,2013-02-17 05:01:00,
2013-02-16 19:11:00,71.0,47.0,-100.00,East,89,7.0,15.0,43,0.00,,,0.05,47.000000,,2013-02-17 05:11:00,
2013-02-16 19:22:00,71.0,47.0,-100.00,East,89,7.0,15.0,43,0.00,,,0.05,47.000000,,2013-02-17 05:22:00,
2013-02-16 19:32:00,71.0,47.0,-100.00,East,89,7.0,15.0,43,0.00,,,0.05,47.000000,,2013-02-17 05:32:00,
2013-02-16 20:02:00,71.0,49.0,-100.00,NE,53,8.0,20.0,45,0.00,,,0.05,0.000000,,2013-02-17 06:02:00,
2013-02-16 20:11:00,71.0,49.0,-100.00,NE,53,8.0,20.0,45,0.00,,,0.05,0.000000,,2013-02-17 06:11:00,
2013-02-16 20:21:00,71.0,49.0,-100.00,NE,53,8.0,20.0,45,0.00,,,0.05,0.000000,,2013-02-17 06:21:00,
2013-02-16 20:31:00,71.0,49.0,-100.00,NE,53,8.0,20.0,45,0.00,,,0.05,0.000000,,2013-02-17 06:31:00,
2013-02-16 21:01:00,71.0,51.0,-100.00,ENE,63,10.0,20.0,50,0.00,,,0.05,0.000000,,2013-02-17 07:01:00,
2013-02-16 21:11:00,71.0,51.0,-100.00,ENE,63,10.0,20.0,50,0.00,,,0.05,0.000000,,2013-02-17 07:11:00,
2013-02-16 21:21:00,71.0,51.0,-100.00,ENE,63,10.0,20.0,50,0.00,,,0.05,0.000000,,2013-02-17 07:21:00,
2013-02-16 21:31:00,71.0,51.0,-100.00,ENE,63,10.0,20.0,50,0.00,,,0.05,0.000000,,2013-02-17 07:31:00,
2013-02-16 22:01:00,70.0,53.0,-100.00,East,80,6.0,18.0,54,0.00,,,0.05,0.000000,,2013-02-17 08:01:00,
2013-02-16 22:11:00,70.0,53.0,-100.00,East,80,6.0,18.0,54,0.00,,,0.05,0.000000,,2013-02-17 08:11:00,
2013-02-16 22:21:00,70.0,53.0,-100.00,East,80,6.0,18.0,54,0.00,,,0.05,0.000000,,2013-02-17 08:21:00,
2013-02-16 22:31:00,70.0,53.0,-100.00,East,80,6.0,18.0,54,0.00,,,0.05,0.000000,,2013-02-17 08:31:00,
2013-02-16 23:01:00,70.0,53.0,-100.00,ENE,65,8.0,27.0,55,0.00,,,0.05,0.000000,,2013-02-17 09:01:00,
2013-02-16 23:11:00,70.0,53.0,-100.00,ENE,65,8.0,27.0,55,0.00,,,0.05,0.000000,,2013-02-17 09:11:00,
2013-02-16 23:21:00,70.0,53.0,-100.00,ENE,65,8.0,27.0,55,0.00,,,0.05,0.000000,,2013-02-17 09:21:00,
2013-02-16 23:31:00,70.0,53.0,-100.00,ENE,65,8.0,27.0,55,0.00,,,0.05,0.000000,,2013-02-17 09:31:00,